TimeCDT,TemperatureF,Dew PointF,Humidity,Sea Level PressureIn,VisibilityMPH,Wind Direction,Wind SpeedMPH,Gust SpeedMPH,PrecipitationIn,Events,Conditions,WindDirDegrees,DateUTC
12:15 AM,61.7,48.2,61,29.93,10.0,SSE,10.4,17.3,N/A,,Clear,160,2013-10-09 05:15:00
12:35 AM,61.5,48.0,61,29.93,10.0,South,13.8,18.4,N/A,,Clear,170,2013-10-09 05:35:00
12:55 AM,61.0,47.8,62,29.93,10.0,SSE,13.8,20.7,N/A,,Clear,160,2013-10-09 05:55:00
1:15 AM,60.8,47.7,62,29.93,10.0,SSE,13.8,20.7,N/A,,Clear,160,2013-10-09 06:15:00
1:35 AM,60.4,47.3,62,29.93,10.0,South,15.0,19.6,N/A,,Clear,170,2013-10-09 06:35:00
1:55 AM,59.9,47.1,63,29.93,10.0,South,13.8,18.4,N/A,,Clear,170,2013-10-09 06:55:00
2:15 AM,59.7,46.9,63,29.94,10.0,South,12.7,20.7,N/A,,Clear,170,2013-10-09 07:15:00
2:35 AM,59.4,46.6,63,29.93,10.0,South,15.0,-,N/A,,Clear,170,2013-10-09 07:35:00
2:55 AM,59.0,46.6,63,29.94,10.0,SSE,12.7,17.3,N/A,,Clear,160,2013-10-09 07:55:00
3:15 AM,59.0,46.6,63,29.93,10.0,South,11.5,17.3,N/A,,Clear,170,2013-10-09 08:15:00
3:35 AM,58.5,46.8,65,29.93,10.0,SSE,11.5,18.4,N/A,,Clear,160,2013-10-09 08:35:00
3:55 AM,58.5,46.8,65,29.93,10.0,South,12.7,18.4,N/A,,Clear,170,2013-10-09 08:55:00
4:15 AM,58.6,46.9,65,29.93,10.0,South,16.1,20.7,N/A,,Clear,170,2013-10-09 09:15:00
4:35 AM,58.6,46.9,65,29.92,10.0,South,16.1,23.0,N/A,,Clear,170,2013-10-09 09:35:00
4:55 AM,58.6,47.3,66,29.92,10.0,SSE,17.3,23.0,N/A,,Clear,160,2013-10-09 09:55:00
5:15 AM,58.5,47.3,66,29.92,10.0,South,15.0,-,N/A,,Clear,170,2013-10-09 10:15:00
5:35 AM,58.3,47.3,67,29.92,10.0,South,16.1,20.7,N/A,,Clear,170,2013-10-09 10:35:00
5:55 AM,58.1,47.3,67,29.92,10.0,South,13.8,23.0,N/A,,Clear,170,2013-10-09 10:55:00
6:15 AM,57.4,47.3,69,29.92,10.0,South,13.8,20.7,N/A,,Clear,170,2013-10-09 11:15:00
6:35 AM,57.2,47.3,69,29.92,10.0,South,13.8,20.7,N/A,,Clear,170,2013-10-09 11:35:00
6:55 AM,56.8,46.9,69,29.93,10.0,South,15.0,19.6,N/A,,Clear,170,2013-10-09 11:55:00
7:15 AM,56.7,46.9,70,29.92,10.0,SSE,12.7,20.7,N/A,,Clear,160,2013-10-09 12:15:00
7:35 AM,56.5,46.9,70,29.92,10.0,SSE,12.7,19.6,N/A,,Clear,160,2013-10-09 12:35:00
7:55 AM,56.5,46.9,70,29.93,10.0,SSE,9.2,18.4,N/A,,Clear,160,2013-10-09 12:55:00
8:15 AM,57.2,47.3,69,29.93,10.0,SSE,9.2,20.7,N/A,,Clear,160,2013-10-09 13:15:00
8:35 AM,58.5,47.3,66,29.93,10.0,SSE,15.0,20.7,N/A,,Clear,160,2013-10-09 13:35:00
8:55 AM,59.9,47.5,64,29.93,10.0,SSE,18.4,26.5,N/A,,Clear,160,2013-10-09 13:55:00
9:15 AM,61.2,47.7,61,29.93,10.0,South,16.1,26.5,N/A,,Clear,170,2013-10-09 14:15:00
9:35 AM,62.2,47.5,58,29.93,10.0,South,18.4,29.9,N/A,,Clear,170,2013-10-09 14:35:00
9:55 AM,63.5,47.8,57,29.94,10.0,South,18.4,25.3,N/A,,Clear,170,2013-10-09 14:55:00
10:15 AM,65.1,48.0,54,29.94,10.0,South,21.9,27.6,N/A,,Clear,170,2013-10-09 15:15:00
10:35 AM,66.2,48.2,52,29.95,10.0,South,16.1,27.6,N/A,,Clear,170,2013-10-09 15:35:00
10:55 AM,67.6,48.0,49,29.96,10.0,SSE,13.8,23.0,N/A,,Clear,160,2013-10-09 15:55:00
11:15 AM,69.8,47.7,45,29.97,10.0,South,18.4,21.9,N/A,,Clear,170,2013-10-09 16:15:00
11:35 AM,71.4,47.5,42,29.96,10.0,South,16.1,21.9,N/A,,Clear,180,2013-10-09 16:35:00
11:55 AM,72.3,47.5,41,29.96,10.0,South,15.0,-,N/A,,Clear,190,2013-10-09 16:55:00
12:15 PM,73.8,47.3,39,29.96,10.0,South,15.0,-,N/A,,Clear,180,2013-10-09 17:15:00
12:35 PM,74.8,46.8,37,29.95,10.0,South,16.1,20.7,N/A,,Clear,170,2013-10-09 17:35:00
12:55 PM,76.8,46.6,34,29.95,10.0,South,15.0,23.0,N/A,,Clear,170,2013-10-09 17:55:00
1:15 PM,78.1,46.2,32,29.94,10.0,South,19.6,23.0,N/A,,Clear,170,2013-10-09 18:15:00
1:35 PM,78.6,45.9,31,29.93,10.0,SSE,15.0,23.0,N/A,,Clear,160,2013-10-09 18:35:00
1:55 PM,79.5,45.9,30,29.92,10.0,SSE,17.3,23.0,N/A,,Clear,160,2013-10-09 18:55:00
2:15 PM,79.9,45.1,29,29.91,10.0,SSE,18.4,26.5,N/A,,Clear,150,2013-10-09 19:15:00
2:35 PM,80.4,45.3,29,29.91,10.0,SSE,19.6,26.5,N/A,,Clear,160,2013-10-09 19:35:00
2:55 PM,81.0,44.2,27,29.90,10.0,SSE,17.3,25.3,N/A,,Clear,160,2013-10-09 19:55:00
3:15 PM,81.9,42.8,25,29.90,10.0,South,19.6,27.6,N/A,,Clear,170,2013-10-09 20:15:00
3:55 PM,82.4,41.5,23,29.89,10.0,SSE,21.9,27.6,N/A,,Clear,160,2013-10-09 20:55:00
4:15 PM,82.2,41.5,24,29.89,10.0,SSE,19.6,28.8,N/A,,Clear,160,2013-10-09 21:15:00
4:35 PM,81.7,41.7,24,29.89,10.0,SSE,18.4,29.9,N/A,,Clear,160,2013-10-09 21:35:00
4:55 PM,81.5,41.9,25,29.89,10.0,SSE,20.7,28.8,N/A,,Clear,160,2013-10-09 21:55:00
5:15 PM,81.1,41.9,25,29.89,10.0,SSE,18.4,25.3,N/A,,Clear,160,2013-10-09 22:15:00
5:35 PM,80.6,42.6,26,29.89,10.0,SSE,17.3,21.9,N/A,,Clear,160,2013-10-09 22:35:00
5:55 PM,79.7,42.8,27,29.89,10.0,SSE,18.4,25.3,N/A,,Clear,160,2013-10-09 22:55:00
6:15 PM,78.8,42.6,28,29.89,10.0,SSE,17.3,25.3,N/A,,Clear,160,2013-10-09 23:15:00
6:55 PM,75.6,44.6,33,29.90,10.0,SSE,11.5,20.7,N/A,,Clear,160,2013-10-09 23:55:00
7:15 PM,72.9,46.0,38,29.91,10.0,SE,6.9,-,N/A,,Clear,140,2013-10-10 00:15:00
7:35 PM,70.7,47.7,44,29.92,10.0,SE,6.9,-,N/A,,Clear,140,2013-10-10 00:35:00
7:55 PM,68.2,48.2,49,29.93,10.0,SE,5.8,-,N/A,,Clear,140,2013-10-10 00:55:00
8:15 PM,68.2,49.3,51,29.93,10.0,SE,8.1,-,N/A,,Clear,140,2013-10-10 01:15:00
8:35 PM,68.4,49.3,50,29.93,10.0,SSE,8.1,-,N/A,,Clear,150,2013-10-10 01:35:00
8:55 PM,67.5,49.5,52,29.94,10.0,SSE,8.1,-,N/A,,Clear,150,2013-10-10 01:55:00
9:15 PM,65.5,49.8,57,29.94,10.0,SE,6.9,-,N/A,,Clear,140,2013-10-10 02:15:00
9:35 PM,66.2,51.1,58,29.94,10.0,SSE,10.4,-,N/A,,Clear,150,2013-10-10 02:35:00
9:55 PM,66.2,52.0,60,29.95,10.0,SSE,10.4,-,N/A,,Clear,150,2013-10-10 02:55:00
10:15 PM,66.2,52.7,62,29.95,10.0,SSE,9.2,-,N/A,,Clear,150,2013-10-10 03:15:00
10:35 PM,66.2,52.9,62,29.96,10.0,SSE,10.4,16.1,N/A,,Clear,150,2013-10-10 03:35:00
10:55 PM,66.2,53.1,63,29.96,10.0,SSE,12.7,-,N/A,,Clear,150,2013-10-10 03:55:00
11:15 PM,65.5,53.2,65,29.96,10.0,SSE,10.4,-,N/A,,Clear,160,2013-10-10 04:15:00
11:55 PM,65.8,53.6,65,29.96,10.0,SSE,11.5,16.1,N/A,,Clear,160,2013-10-10 04:55:00